User: anonymous   Login
Location: Ab? ar R?sh Ba?r?
(24.1861°N, 32.8847°E)
Time: 10:27:08
(UTC+00:00)
Language:

deb Kosmos-397 - Orbit

View from above orbital plane
View from above orbital plane
View from above satellite
View from above satellite

Ground track
Ground track

The orbit data is extracted from the following two-line orbital elements,

1 05414U 71015BL  22228.62288833  .00000040  00000-0  75503-4 0  9992
2 05414  66.7687 306.3593 0080612 155.1028 205.3980 14.02095125628893
Epoch (UTC): 16 August 2022 14:56:57
Eccentricity: 0.0080612
inclination: 66.7687°
perigee height: 828 km
apogee height: 945 km
right ascension of ascending node: 306.3593°
argument of perigee: 155.1028°
revolutions per day: 14.02095125
mean anomaly at epoch: 205.3980°
orbit number at epoch: 62889

The dashed part of the orbit path shows where the satellite is in the earth's shadow,  

DLR